HA9HP Weather Reports


time (UTC)temp
F
wind
direction
speed
knots
gust
knots
rain 1hr
in
rain 24hr
in
rain mn
in
humidity
%
barometer
mb
20260504191524 52 240 0.0 1.7 0.00 0.00 0.00 68 1015.6
20260504190030 53 238 0.0 1.7 0.00 0.00 0.00 65 1015.6
20260504184528 55 202 0.0 1.7 0.00 0.00 0.00 62 1015.4
20260504183020 57 186 0.0 1.7 0.00 0.00 0.00 57 1015.3
20260504181523 60 182 0.0 1.7 0.00 0.00 0.00 55 1015.1
20260504180028 63 182 0.0 1.7 0.00 0.00 0.00 48 1014.9
20260504174526 68 182 0.0 0.0 0.00 0.00 0.00 42 1015.0
20260504173025 73 182 0.0 1.7 0.00 0.00 0.00 35 1014.9
20260504171535 75 182 0.0 1.7 0.00 0.00 0.00 33 1014.8
20260504081528 70 240 3.5 8.7 0.00 0.00 0.00 32 1019.5
20260504050019 41 5 0.0 0.0 0.00 0.00 0.00 89 1019.3
20260504044527 40 5 0.0 1.7 0.00 0.00 0.00 89 1019.1
20260504043016 38 346 0.0 0.0 0.00 0.00 0.00 90 1019.1
20260504041512 37 346 0.0 0.0 0.00 0.00 0.00 91 1018.9
20260504040023 36 346 0.0 1.7 0.00 0.00 0.00 90 1018.8
20260504034523 36 340 0.0 0.0 0.00 0.00 0.00 89 1018.7
20260504033027 36 331 0.0 0.0 0.00 0.00 0.00 89 1018.7
20260504031514 36 331 0.0 0.0 0.00 0.00 0.00 88 1018.7
20260504030030 36 333 0.0 0.0 0.00 0.00 0.00 89 1018.6
20260504024523 36 334 0.0 0.0 0.00 0.00 0.00 88 1018.6
20260504023026 37 334 0.0 0.0 0.00 0.00 0.00 88 1018.7
20260504021530 37 329 0.0 0.0 0.00 0.00 0.00 88 1018.8
20260504020019 37 330 0.0 0.0 0.00 0.00 0.00 88 1018.7
20260504014519 37 331 0.0 1.7 0.00 0.00 0.00 87 1018.8
20260504013026 37 327 0.0 1.7 0.00 0.00 0.00 87 1018.8
20260504011528 38 327 0.0 1.7 0.00 0.00 0.00 87 1018.8
20260504010030 38 331 0.0 0.0 0.00 0.00 0.00 87 1018.8
20260504004522 38 327 0.0 1.7 0.00 0.00 0.00 87 1018.7
20260504003021 38 323 0.0 0.9 0.00 0.00 0.00 86 1018.7
20260504001526 39 323 0.0 1.7 0.00 0.00 0.00 86 1018.8
20260504000027 39 323 0.0 1.7 0.00 0.00 0.00 86 1018.9
20260503234542 39 302 0.0 1.7 0.00 0.00 0.00 86 1018.9
20260503233021 40 302 0.0 1.7 0.00 0.00 0.00 85 1018.8
20260503231528 40 302 0.0 1.7 0.00 0.00 0.00 85 1018.8
20260503230029 41 302 0.0 1.7 0.00 0.00 0.00 85 1018.8
20260503224528 41 302 0.0 1.7 0.00 0.00 0.00 84 1018.8
20260503223029 41 302 0.0 1.7 0.00 0.00 0.00 84 1018.8
20260503221523 41 302 0.0 1.7 0.00 0.00 0.00 84 1018.7
20260503220039 42 302 0.0 1.7 0.00 0.00 0.00 83 1018.7
20260503214529 42 302 0.0 1.7 0.00 0.00 0.00 82 1018.7
20260503213029 43 302 0.0 1.7 0.00 0.00 0.00 82 1018.8
20260503211528 43 302 0.0 1.7 0.00 0.00 0.00 82 1018.7
20260503210022 43 302 0.0 1.7 0.00 0.00 0.00 81 1018.7
20260503204526 44 302 0.0 1.7 0.00 0.00 0.00 80 1018.7
20260503203031 44 300 0.0 0.9 0.00 0.00 0.00 79 1018.7
20260503201530 45 300 0.0 1.7 0.00 0.00 0.00 78 1018.6
20260503200028 46 300 0.0 1.7 0.00 0.00 0.00 78 1018.7
20260503194524 47 300 0.0 1.7 0.00 0.00 0.00 77 1018.7
20260503193034 48 300 0.0 1.7 0.00 0.00 0.00 75 1018.8